FAWB

Wonderboom Airport

Airport
ICAO code
FAWB
IATA Code
PRY
Summary
ICAO Region
AFI
ICAO Territory
Location

Pretoria, Gauteng

Serving
Pretoria
Elevation
4095 ft
Coordinates
25° 39' 14" S , 28° 13' 27" E
KCC
Metar
FAWB 271100Z AUTO 02005KT //// // ////// 23/16 Q1023

Description

Airport handling general aviation traffic north of Pretoria, South Africa.

Climatology

Within the Köppen Climate Classification System, ((Koppen climate classification Cwa)) this climate type generally has warm and humid summers with mild dry winters. Convective thunderstorms provide precipitation in the summer months.

Runways

Designator Length Width Surface Rops
6/24 1280 22 ASP No/No
11/29 1828 30 ASP No/No

Airport map

Aerial View

SKYbrary Partners:

Safety knowledge contributed by: